EW5897 Weather Reports


time (UTC)temp
F
wind
direction
speed
knots
gust
knots
rain 1hr
in
rain 24hr
in
rain mn
in
humidity
%
barometer
mb
20260906212431 68 78 12.2 17.4 0.00 1.15 1.15 86 1011.1
20260906210930 69 80 14.8 20.9 0.00 1.15 1.15 86 1011.1
20260906204926 69 80 14.8 20.9 0.00 1.15 1.15 85 1011.0
20260906202930 69 49 12.2 19.1 0.00 1.15 1.15 84 1011.2
20260906201424 68 58 11.3 14.8 0.00 1.15 1.15 86 1011.4
20260906195426 66 61 10.4 16.5 0.00 1.15 1.15 88 1011.6
20260906193920 66 53 9.6 15.6 0.00 1.15 1.15 92 1012.1
20260906191919 62 53 8.7 16.5 0.00 1.15 1.15 95 1012.7
20260906185927 60 59 7.8 12.2 0.00 1.15 1.15 96 1012.6
20260906183933 59 60 8.7 13.0 0.00 1.15 1.15 96 1012.9
20260906181433 59 50 8.7 15.6 0.01 1.15 1.15 97 1012.4
20260906175915 58 32 8.7 13.9 0.13 1.15 1.15 97 1012.8
20260906173927 59 25 11.3 16.5 0.27 1.15 1.15 97 1012.5
20260906171923 60 37 11.3 17.4 0.94 1.14 1.14 97 1012.1
20260906165920 59 65 4.3 11.3 1.01 1.02 1.02 97 1015.1
20260906164413 59 11 7.8 14.8 0.92 0.92 0.92 97 1015.0
20260906162417 60 273 13.9 26.1 0.42 0.42 0.40 95 1014.0
20260906155923 65 28 6.1 11.3 0.01 0.01 0.01 96 1012.2
20260906153912 65 46 9.6 13.9 0.00 0.00 0.00 96 1012.4
20260906151928 65 40 10.4 13.9 0.00 0.00 0.00 96 1012.8
20260906150423 65 42 8.7 12.2 0.00 0.00 0.00 96 1012.6
20260906144432 65 30 7.8 13.0 0.00 0.00 0.00 97 1012.4
20260906142432 65 51 7.0 12.2 0.00 0.00 0.00 97 1012.5
20260906140427 65 51 7.8 10.4 0.00 0.00 0.00 98 1012.8
20260906134915 64 64 7.0 10.4 0.00 0.00 0.00 98 1012.3
20260906132941 64 43 6.1 10.4 0.00 0.00 0.00 98 1012.4
20260906131422 64 63 5.2 10.4 0.00 0.00 0.00 98 1012.3
20260906125419 64 50 6.1 11.3 0.00 0.00 0.00 98 1012.6
20260906123421 64 24 6.1 10.4 0.00 0.00 0.00 98 1012.5
20260906121428 63 37 7.0 10.4 0.00 0.00 0.00 97 1012.4
20260906115908 63 27 7.0 11.3 0.00 0.00 0.00 97 1012.3
20260906113925 63 26 5.2 8.7 0.00 0.00 0.00 97 1012.6
20260906111933 63 46 5.2 9.6 0.00 0.00 0.00 97 1012.5
20260906110413 63 34 5.2 8.7 0.00 0.00 0.00 97 1012.4
20260906104418 63 36 2.6 5.2 0.00 0.00 0.00 97 1012.5
20260906102431 62 13 3.5 7.0 0.00 0.00 0.00 97 1012.3
20260906100420 62 40 3.5 7.0 0.00 0.00 0.00 97 1012.4
20260906094921 62 26 2.6 5.2 0.00 0.00 0.00 97 1012.4
20260906092931 62 33 2.6 5.2 0.00 0.00 0.00 97 1012.4
20260906091417 62 25 3.5 7.8 0.00 0.00 0.00 97 1012.3
20260906085428 62 11 2.6 4.3 0.00 0.00 0.00 97 1012.5
20260906083916 62 39 1.7 2.6 0.00 0.00 0.00 96 1012.5
20260906081421 62 39 1.7 4.3 0.00 0.00 0.00 97 1012.5
20260906075424 62 259 1.7 4.3 0.00 0.00 0.00 97 1012.4
20260906073426 63 33 1.7 5.2 0.00 0.00 0.00 97 1012.3
20260906071417 62 60 2.6 4.3 0.00 0.00 0.00 96 1012.3
20260906065431 62 49 1.7 3.5 0.00 0.00 0.00 96 1012.5
20260906063924 60 62 1.7 2.6 0.00 0.00 0.00 95 1012.6
20260906062425 61 19 0.0 0.0 0.00 0.00 0.00 95 1012.7
20260906060919 61 19 0.0 0.0 0.00 0.00 0.00 95 1012.6
20260906054935 61 18 0.9 2.6 0.00 0.00 0.00 95 1012.6
20260906052923 62 260 0.9 2.6 0.00 0.00 0.00 95 1012.7
20260906050434 64 19 0.0 0.0 0.00 0.00 0.00 95 1012.7
20260906044424 64 19 0.0 0.0 0.00 0.00 0.00 94 1012.7
20260906042918 64 19 0.0 0.9 0.00 0.00 0.00 94 1012.5
20260906040931 64 22 0.9 2.6 0.00 0.00 0.00 94 1012.3
20260906034931 64 29 1.7 2.6 0.00 0.00 0.00 92 1012.2
20260906032935 65 28 0.9 1.7 0.00 0.00 0.00 91 1012.1
20260906031421 66 30 1.7 2.6 0.00 0.00 0.00 90 1011.9
20260906025425 67 38 0.9 3.5 0.00 0.00 0.00 90 1011.7
20260906023426 69 42 0.9 3.5 0.00 0.00 0.00 88 1011.3
20260906021435 71 31 3.5 7.8 0.00 0.00 0.00 86 1011.1
20260906015434 72 12 5.2 8.7 0.00 0.00 0.00 84 1011.0
20260906013419 74 5 4.3 8.7 0.00 0.00 0.00 81 1010.8
20260906011421 75 15 7.0 11.3 0.00 0.00 0.00 78 1010.6
20260906005424 78 11 7.8 12.2 0.00 0.00 0.00 74 1010.3
20260906003427 80 12 6.1 14.8 0.00 0.00 0.00 72 1010.1
20260906001427 81 5 7.8 11.3 0.00 0.00 0.00 65 1009.8
20260905235441 85 295 7.8 13.0 0.00 0.00 0.00 58 1009.5
20260905232933 86 311 2.6 7.0 0.00 0.00 0.00 55 1009.3
20260905230947 86 10 1.7 5.2 0.00 0.00 0.00 54 1009.0
20260905225432 86 250 1.7 7.0 0.00 0.00 0.00 53 1009.0
20260905223921 85 222 3.5 7.0 0.00 0.00 0.00 55 1009.0
20260905221929 86 115 0.0 3.5 0.00 0.00 0.00 57 1008.9
20260905220423 84 236 2.6 6.1 0.00 0.00 0.00 58 1009.0
20260905214918 85 209 2.6 6.1 0.00 0.00 0.00 57 1009.0